SKW1378 SKPS-SKBO

Flight info

Callsign SKW1378
Flight time 0h 53m
Altitude 37000
Route TITGU2A TITGU DCT ESARO DCT GIR GIR5E
Aircraft CRJ7/M-SDFGIRWY/S

Departure

Time 2026-04-25 15:24
Airport Antonio Nariño Airport (SKPS)

Arrival

Time 2026-04-25 16:17
Airport El Dorado International Airport (SKBO)
Time Latitude Longitude Altitude Speed Heading
2026-04-25 14:58 1.39611 -77.28977 5905 ft 0 kts 105°
2026-04-25 15:15 1.39613 -77.28999 5905 ft 4 kts 82°
2026-04-25 15:16 1.39601 -77.29020 5905 ft 4 kts 37°
2026-04-25 15:16 1.39577 -77.29031 5906 ft 4 kts 14°
2026-04-25 15:16 1.39557 -77.29036 5906 ft 0 kts 15°
2026-04-25 15:17 1.39559 -77.29035 5906 ft 1 kts 15°
2026-04-25 15:18 1.39570 -77.29032 5906 ft 2 kts 14°
2026-04-25 15:18 1.39587 -77.29043 5907 ft 4 kts 300°
2026-04-25 15:18 1.39600 -77.29084 5908 ft 7 kts 277°
2026-04-25 15:19 1.39582 -77.29115 5907 ft 4 kts 212°
2026-04-25 15:19 1.39575 -77.29118 5908 ft 4 kts 200°
2026-04-25 15:19 1.39517 -77.29131 5912 ft 8 kts 192°
2026-04-25 15:19 1.39468 -77.29142 5914 ft 5 kts 194°
2026-04-25 15:20 1.39439 -77.29149 5916 ft 5 kts 194°
2026-04-25 15:20 1.39401 -77.29160 5919 ft 6 kts 195°
2026-04-25 15:20 1.39349 -77.29174 5922 ft 10 kts 196°
2026-04-25 15:20 1.39258 -77.29200 5923 ft 18 kts 196°
2026-04-25 15:21 1.39167 -77.29226 5926 ft 24 kts 194°
2026-04-25 15:21 1.39062 -77.29254 5932 ft 27 kts 196°
2026-04-25 15:21 1.38898 -77.29302 5943 ft 22 kts 194°
2026-04-25 15:21 1.38765 -77.29334 5944 ft 16 kts 190°
2026-04-25 15:22 1.38684 -77.29339 5956 ft 6 kts 189°
2026-04-25 15:22 1.38675 -77.29347 5953 ft 1 kts 246°
2026-04-25 15:22 1.38674 -77.29355 5957 ft 0 kts 290°
2026-04-25 15:22 1.38685 -77.29362 5956 ft 6 kts 346°
2026-04-25 15:23 1.38725 -77.29342 5953 ft 0 kts 19°
2026-04-25 15:23 1.38734 -77.29340 5948 ft 8 kts 14°
2026-04-25 15:23 1.39017 -77.29265 5937 ft 80 kts 15°
2026-04-25 15:23 1.39790 -77.29060 5896 ft 147 kts 14°
2026-04-25 15:24 1.40896 -77.28761 6236 ft 166 kts 15°
2026-04-25 15:24 1.41616 -77.28562 6864 ft 160 kts 14°
2026-04-25 15:24 1.42726 -77.28264 7493 ft 169 kts 14°
2026-04-25 15:24 1.43494 -77.28065 7932 ft 167 kts 13°
2026-04-25 15:25 1.45020 -77.27684 8441 ft 181 kts
2026-04-25 15:25 1.46408 -77.27706 8522 ft 214 kts 353°
2026-04-25 15:25 1.47893 -77.27896 9220 ft 216 kts 351°
2026-04-25 15:25 1.49883 -77.28271 10139 ft 220 kts 347°
2026-04-25 15:26 1.50891 -77.28506 10438 ft 233 kts 346°
2026-04-25 15:26 1.52553 -77.28933 10689 ft 258 kts 345°
2026-04-25 15:26 1.54359 -77.29406 11070 ft 277 kts 345°
2026-04-25 15:26 1.56282 -77.29892 11511 ft 293 kts 346°
2026-04-25 15:27 1.58308 -77.30384 12063 ft 303 kts 346°
2026-04-25 15:27 1.60373 -77.30886 12822 ft 307 kts 346°
2026-04-25 15:27 1.64609 -77.31906 13777 ft 333 kts 346°
2026-04-25 15:28 1.66928 -77.32464 14059 ft 351 kts 346°
2026-04-25 15:28 1.69359 -77.33021 14471 ft 363 kts 347°
2026-04-25 15:28 1.71867 -77.33469 15128 ft 368 kts 351°
2026-04-25 15:28 1.74434 -77.33650 15793 ft 372 kts
2026-04-25 15:29 1.77021 -77.33394 16444 ft 376 kts 10°
2026-04-25 15:29 1.79575 -77.32754 17067 ft 380 kts 18°
2026-04-25 15:29 1.82041 -77.31751 17644 ft 385 kts 26°
2026-04-25 15:29 1.84342 -77.30363 18235 ft 388 kts 33°
2026-04-25 15:30 1.86560 -77.28797 18819 ft 391 kts 36°
2026-04-25 15:30 1.88746 -77.27160 19384 ft 394 kts 37°
2026-04-25 15:30 1.90910 -77.25461 19933 ft 397 kts 39°
2026-04-25 15:30 1.92845 -77.23481 20432 ft 400 kts 51°
2026-04-25 15:31 1.94459 -77.21208 20948 ft 402 kts 56°
2026-04-25 15:31 1.95978 -77.18854 21437 ft 405 kts 57°
2026-04-25 15:31 1.97509 -77.16480 21932 ft 407 kts 56°
2026-04-25 15:31 1.99096 -77.14128 22400 ft 409 kts 55°
2026-04-25 15:32 2.00733 -77.11793 22818 ft 411 kts 54°
2026-04-25 15:32 2.02375 -77.09434 23199 ft 414 kts 55°
2026-04-25 15:32 2.04022 -77.07063 23614 ft 416 kts 55°
2026-04-25 15:33 2.07346 -77.02282 24368 ft 421 kts 55°
2026-04-25 15:33 2.09004 -76.99896 24737 ft 423 kts 55°
2026-04-25 15:33 2.10684 -76.97479 25135 ft 424 kts 55°
2026-04-25 15:33 2.12372 -76.95052 25506 ft 426 kts 55°
2026-04-25 15:34 2.14067 -76.92616 25856 ft 428 kts 56°
2026-04-25 15:34 2.15766 -76.90165 26213 ft 429 kts 56°
2026-04-25 15:34 2.17468 -76.87716 26541 ft 430 kts 56°
2026-04-25 15:34 2.18625 -76.86049 26742 ft 432 kts 56°
2026-04-25 15:35 2.22617 -76.80306 27466 ft 435 kts 56°
2026-04-25 15:35 2.24345 -76.77819 27774 ft 436 kts 56°
2026-04-25 15:35 2.26079 -76.75321 28043 ft 438 kts 56°
2026-04-25 15:36 2.29561 -76.70309 28585 ft 440 kts 57°
2026-04-25 15:36 2.31309 -76.67789 28901 ft 439 kts 56°
2026-04-25 15:36 2.33050 -76.65290 29310 ft 437 kts 57°
2026-04-25 15:37 2.34778 -76.62803 29671 ft 435 kts 57°
2026-04-25 15:37 2.36619 -76.60405 30022 ft 435 kts 51°
2026-04-25 15:37 2.38681 -76.58189 30364 ft 434 kts 47°
2026-04-25 15:37 2.40847 -76.56085 30667 ft 434 kts 45°
2026-04-25 15:38 2.43044 -76.54076 30987 ft 432 kts 45°
2026-04-25 15:38 2.45266 -76.52048 31280 ft 432 kts 45°
2026-04-25 15:38 2.47453 -76.50003 31558 ft 430 kts 46°
2026-04-25 15:38 2.49621 -76.47944 31832 ft 429 kts 46°
2026-04-25 15:39 2.51777 -76.45890 32135 ft 428 kts 46°
2026-04-25 15:39 2.53936 -76.43838 32371 ft 427 kts 46°
2026-04-25 15:39 2.56084 -76.41791 32637 ft 426 kts 46°
2026-04-25 15:39 2.58230 -76.39757 32919 ft 425 kts 46°
2026-04-25 15:40 2.60368 -76.37725 33180 ft 423 kts 46°
2026-04-25 15:40 2.61780 -76.36384 33327 ft 423 kts 46°
2026-04-25 15:40 2.64632 -76.33672 33604 ft 422 kts 46°
2026-04-25 15:40 2.66756 -76.31650 33851 ft 421 kts 46°
2026-04-25 15:41 2.68877 -76.29632 34057 ft 421 kts 46°
2026-04-25 15:41 2.70995 -76.27614 34273 ft 420 kts 46°
2026-04-25 15:41 2.73114 -76.25602 34459 ft 420 kts 46°
2026-04-25 15:41 2.75228 -76.23591 34652 ft 419 kts 46°
2026-04-25 15:42 2.77342 -76.21581 34855 ft 419 kts 46°
2026-04-25 15:42 2.79454 -76.19572 35055 ft 418 kts 46°
2026-04-25 15:42 2.81564 -76.17563 35166 ft 419 kts 46°
2026-04-25 15:42 2.83680 -76.15552 35338 ft 419 kts 46°
2026-04-25 15:43 2.85800 -76.13544 35495 ft 419 kts 46°
2026-04-25 15:43 2.87916 -76.11541 35689 ft 419 kts 46°
2026-04-25 15:43 2.90021 -76.09522 35818 ft 419 kts 46°
2026-04-25 15:43 2.92105 -76.07536 35972 ft 419 kts 46°
2026-04-25 15:44 2.94223 -76.05531 36088 ft 419 kts 46°
2026-04-25 15:44 2.96339 -76.03523 36217 ft 419 kts 46°
2026-04-25 15:44 3.00568 -75.99509 36463 ft 419 kts 46°
2026-04-25 15:45 3.02679 -75.97502 36615 ft 418 kts 46°
2026-04-25 15:45 3.04785 -75.95502 36799 ft 416 kts 46°
2026-04-25 15:45 3.06879 -75.93514 36980 ft 415 kts 46°
2026-04-25 15:45 3.08264 -75.92199 37047 ft 415 kts 46°
2026-04-25 15:46 3.13173 -75.87533 37124 ft 418 kts 46°
2026-04-25 15:46 3.17392 -75.83528 37126 ft 422 kts 46°
2026-04-25 15:47 3.21664 -75.79466 37130 ft 426 kts 46°
2026-04-25 15:47 3.25986 -75.75359 37124 ft 430 kts 46°
2026-04-25 15:48 3.30338 -75.71222 37116 ft 433 kts 46°
2026-04-25 15:48 3.34724 -75.67052 37120 ft 436 kts 45°
2026-04-25 15:49 3.39141 -75.62852 37124 ft 440 kts 46°
2026-04-25 15:49 3.43585 -75.58630 37115 ft 440 kts 45°
2026-04-25 15:50 3.48025 -75.54407 37112 ft 440 kts 45°
2026-04-25 15:50 3.52458 -75.50189 37106 ft 439 kts 45°
2026-04-25 15:51 3.56139 -75.46689 37113 ft 439 kts 45°
2026-04-25 15:51 3.61278 -75.41798 37117 ft 438 kts 46°
2026-04-25 15:52 3.65696 -75.37594 37109 ft 438 kts 45°
2026-04-25 15:52 3.70111 -75.33392 37076 ft 438 kts 45°
2026-04-25 15:53 3.74563 -75.29154 36731 ft 446 kts 45°
2026-04-25 15:53 3.76824 -75.27002 36498 ft 451 kts 45°
2026-04-25 15:53 3.79099 -75.24837 36257 ft 450 kts 45°
2026-04-25 15:54 3.81359 -75.22686 35919 ft 448 kts 45°
2026-04-25 15:54 3.83613 -75.20540 35498 ft 448 kts 45°
2026-04-25 15:54 3.85890 -75.18369 34882 ft 451 kts 45°
2026-04-25 15:54 3.88162 -75.16205 34259 ft 451 kts 45°
2026-04-25 15:55 3.90438 -75.14040 33638 ft 451 kts 45°
2026-04-25 15:55 3.92713 -75.11875 33013 ft 451 kts 45°
2026-04-25 15:55 3.94988 -75.09706 32403 ft 452 kts 45°
2026-04-25 15:55 3.97267 -75.07536 31797 ft 452 kts 45°
2026-04-25 15:56 3.99556 -75.05357 31188 ft 453 kts 45°
2026-04-25 15:56 4.01811 -75.03208 30590 ft 454 kts 45°
2026-04-25 15:56 4.04005 -75.01113 29996 ft 454 kts 45°
2026-04-25 15:56 4.06298 -74.98928 29371 ft 456 kts 45°
2026-04-25 15:57 4.08593 -74.96731 28751 ft 457 kts 45°
2026-04-25 15:57 4.10894 -74.94542 28132 ft 458 kts 45°
2026-04-25 15:57 4.13115 -74.92423 27537 ft 458 kts 45°
2026-04-25 15:57 4.15426 -74.90221 26916 ft 458 kts 44°
2026-04-25 15:58 4.17958 -74.88322 26285 ft 454 kts 29°
2026-04-25 15:58 4.20855 -74.87113 25667 ft 448 kts 20°
2026-04-25 15:58 4.23796 -74.86120 25049 ft 443 kts 18°
2026-04-25 15:58 4.26777 -74.85395 24424 ft 439 kts
2026-04-25 15:59 4.29799 -74.85007 23798 ft 435 kts
2026-04-25 15:59 4.32779 -74.84718 23252 ft 425 kts
2026-04-25 15:59 4.35686 -74.84427 22758 ft 415 kts
2026-04-25 15:59 4.38526 -74.84076 22356 ft 403 kts
2026-04-25 16:00 4.39422 -74.83956 22272 ft 399 kts
2026-04-25 16:00 4.42129 -74.83602 22013 ft 386 kts
2026-04-25 16:00 4.46485 -74.83021 21575 ft 368 kts
2026-04-25 16:00 4.48998 -74.82687 21313 ft 360 kts
2026-04-25 16:01 4.51457 -74.82365 21052 ft 352 kts
2026-04-25 16:01 4.53828 -74.82053 20796 ft 345 kts
2026-04-25 16:01 4.56191 -74.81740 20541 ft 340 kts
2026-04-25 16:01 4.58519 -74.81431 20282 ft 334 kts
2026-04-25 16:02 4.60804 -74.81134 20028 ft 329 kts
2026-04-25 16:02 4.63061 -74.80843 19778 ft 325 kts
2026-04-25 16:02 4.65291 -74.80548 19536 ft 322 kts
2026-04-25 16:02 4.67227 -74.80264 19310 ft 321 kts
2026-04-25 16:03 4.69429 -74.79944 19060 ft 320 kts
2026-04-25 16:03 4.71641 -74.79634 18642 ft 324 kts
2026-04-25 16:03 4.73900 -74.79346 18149 ft 330 kts
2026-04-25 16:03 4.76203 -74.79057 17651 ft 335 kts
2026-04-25 16:04 4.78538 -74.79050 17209 ft 337 kts 354°
2026-04-25 16:04 4.80857 -74.79364 16922 ft 334 kts 350°
2026-04-25 16:04 4.83116 -74.79758 16781 ft 326 kts 349°
2026-04-25 16:04 4.85322 -74.80150 16692 ft 317 kts 349°
2026-04-25 16:05 4.87474 -74.80498 16647 ft 309 kts 352°
2026-04-25 16:05 4.89576 -74.80399 16598 ft 301 kts 18°
2026-04-25 16:05 4.93171 -74.78483 16624 ft 287 kts 31°
2026-04-25 16:06 4.94851 -74.77448 16605 ft 279 kts 31°
2026-04-25 16:06 4.96332 -74.76239 16601 ft 272 kts 55°
2026-04-25 16:06 4.96952 -74.74492 16515 ft 269 kts 89°
2026-04-25 16:06 4.96845 -74.72629 16239 ft 275 kts 96°
2026-04-25 16:07 4.96601 -74.70708 15945 ft 280 kts 98°
2026-04-25 16:07 4.96503 -74.70056 15897 ft 280 kts 98°
2026-04-25 16:07 4.95976 -74.66822 15642 ft 284 kts 99°
2026-04-25 16:07 4.95637 -74.64865 15480 ft 286 kts 99°
2026-04-25 16:08 4.95291 -74.62896 15301 ft 289 kts 100°
2026-04-25 16:08 4.94919 -74.60905 15064 ft 291 kts 101°
2026-04-25 16:08 4.94516 -74.58904 14827 ft 293 kts 101°
2026-04-25 16:08 4.94097 -74.56900 14589 ft 294 kts 101°
2026-04-25 16:09 4.93712 -74.54888 14343 ft 293 kts 100°
2026-04-25 16:09 4.93345 -74.52881 14102 ft 292 kts 99°
2026-04-25 16:09 4.92979 -74.50882 13857 ft 291 kts 100°
2026-04-25 16:09 4.92608 -74.48885 13610 ft 291 kts 100°
2026-04-25 16:10 4.92239 -74.46893 13363 ft 290 kts 100°
2026-04-25 16:10 4.91874 -74.44929 13116 ft 289 kts 100°
2026-04-25 16:10 4.91464 -74.42936 12859 ft 288 kts 108°
2026-04-25 16:10 4.90455 -74.41255 12612 ft 287 kts 136°
2026-04-25 16:11 4.88827 -74.40142 12466 ft 280 kts 147°
2026-04-25 16:11 4.87492 -74.38797 12417 ft 270 kts 121°
2026-04-25 16:11 4.86624 -74.37225 12649 ft 244 kts 120°
2026-04-25 16:11 4.85766 -74.35876 12814 ft 222 kts 123°
2026-04-25 16:12 4.84978 -74.34556 12818 ft 220 kts 117°
2026-04-25 16:12 4.84257 -74.33190 12700 ft 223 kts 120°
2026-04-25 16:12 4.83416 -74.31875 12430 ft 226 kts 122°
2026-04-25 16:12 4.83124 -74.31425 12307 ft 226 kts 123°
2026-04-25 16:13 4.82063 -74.29796 12084 ft 200 kts 122°
2026-04-25 16:13 4.81093 -74.28290 11800 ft 187 kts 123°
2026-04-25 16:13 4.80366 -74.27221 11568 ft 178 kts 125°
2026-04-25 16:13 4.79681 -74.26258 11342 ft 167 kts 125°
2026-04-25 16:14 4.79234 -74.25626 11036 ft 168 kts 126°
2026-04-25 16:14 4.78544 -74.24691 10640 ft 165 kts 127°
2026-04-25 16:14 4.77874 -74.23762 10222 ft 165 kts 125°
2026-04-25 16:14 4.77175 -74.22863 9923 ft 159 kts 128°
2026-04-25 16:15 4.76479 -74.22025 9824 ft 157 kts 128°
2026-04-25 16:15 4.75782 -74.21148 9694 ft 166 kts 126°
2026-04-25 16:15 4.75077 -74.20225 9577 ft 166 kts 126°
2026-04-25 16:15 4.74389 -74.19310 9437 ft 162 kts 125°
2026-04-25 16:16 4.73728 -74.18413 9240 ft 158 kts 125°
2026-04-25 16:16 4.73074 -74.17526 9046 ft 159 kts 125°
2026-04-25 16:16 4.72405 -74.16622 8830 ft 161 kts 127°
2026-04-25 16:16 4.71741 -74.15744 8570 ft 157 kts 126°
2026-04-25 16:17 4.71076 -74.14866 8372 ft 153 kts 127°
2026-04-25 16:17 4.70543 -74.14158 8369 ft 98 kts 128°
2026-04-25 16:17 4.70270 -74.13798 8367 ft 45 kts 127°
2026-04-25 16:17 4.70084 -74.13657 8369 ft 30 kts 156°
2026-04-25 16:18 4.69946 -74.13603 8370 ft 13 kts 165°
2026-04-25 16:18 4.69906 -74.13618 8371 ft 9 kts 249°
2026-04-25 16:18 4.69936 -74.13681 8371 ft 8 kts 306°
2026-04-25 16:18 4.69971 -74.13725 8371 ft 8 kts 311°
2026-04-25 16:19 4.70010 -74.13771 8370 ft 9 kts 302°
2026-04-25 16:19 4.70049 -74.13831 8371 ft 11 kts 306°
2026-04-25 16:19 4.70101 -74.13900 8371 ft 13 kts 307°
2026-04-25 16:20 4.70228 -74.14070 8371 ft 17 kts 308°
2026-04-25 16:20 4.70300 -74.14163 8370 ft 17 kts 307°
2026-04-25 16:20 4.70357 -74.14237 8371 ft 0 kts 307°
2026-04-25 16:21 4.70364 -74.14247 8371 ft 3 kts 307°
2026-04-25 16:21 4.70385 -74.14274 8371 ft 7 kts 307°
2026-04-25 16:22 4.70419 -74.14320 8371 ft 10 kts 307°
2026-04-25 16:22 4.70446 -74.14386 8371 ft 11 kts 244°
2026-04-25 16:22 4.70387 -74.14441 8372 ft 13 kts 220°
2026-04-25 16:22 4.70310 -74.14500 8371 ft 15 kts 217°
2026-04-25 16:23 4.70227 -74.14563 8371 ft 15 kts 217°
2026-04-25 16:23 4.70147 -74.14622 8371 ft 13 kts 203°
2026-04-25 16:23 4.70072 -74.14590 8372 ft 12 kts 140°
2026-04-25 16:23 4.70010 -74.14534 8371 ft 12 kts 133°
2026-04-25 16:24 4.69962 -74.14469 8371 ft 11 kts 126°
2026-04-25 16:24 4.69919 -74.14412 8372 ft 7 kts 127°
2026-04-25 16:24 4.69899 -74.14396 8371 ft 2 kts 180°
2026-04-25 16:24 4.69888 -74.14401 8371 ft 3 kts 219°
2026-04-25 16:25 4.69870 -74.14420 8371 ft 4 kts 228°
2026-04-25 16:25 4.69867 -74.14423 8371 ft 0 kts 228°